EW8450 Weather Reports


time (UTC)temp
C
wind
direction
speed
KPH
gust
KPH
rain 1hr
cm
rain 24hr
cm
rain mn
cm
humidity
%
barometer
mb
20260503204348 25 315 3.2 9.7 0.00 0.05 0.00 47 1011.0
20260503203601 25 326 3.2 9.7 0.00 0.05 0.00 46 1011.0
20260503203102 25 338 3.2 8.0 0.00 0.05 0.00 49 1011.1
20260503202601 25 317 3.2 8.0 0.00 0.05 0.00 46 1011.2
20260503202101 25 307 3.2 9.7 0.00 0.05 0.00 46 1011.2
20260503201604 25 330 3.2 9.7 0.00 0.05 0.00 46 1011.3
20260503201101 25 159 3.2 8.0 0.00 0.05 0.00 48 1011.4
20260503200601 25 329 3.2 9.7 0.00 0.05 0.00 47 1011.4
20260503200357 25 338 3.2 9.7 0.00 0.05 0.00 47 1011.4
20260503195601 24 312 3.2 9.7 0.00 0.05 0.00 49 1011.5
20260503195352 24 328 3.2 9.7 0.00 0.05 0.00 49 1011.6
20260503194635 24 334 3.2 8.0 0.00 0.05 0.00 49 1011.7
20260503193600 23 0 1.6 8.0 0.00 0.05 0.00 49 1011.8
20260503193101 23 349 1.6 8.0 0.00 0.05 0.00 51 1011.8
20260503192601 23 331 1.6 6.4 0.00 0.05 0.00 49 1011.9
20260503192101 23 253 1.6 6.4 0.00 0.05 0.00 51 1012.0
20260503191600 22 0 1.6 4.8 0.00 0.05 0.00 51 1012.1
20260503191059 22 0 0.0 6.4 0.00 0.05 0.00 52 1012.1
20260503190559 22 0 1.6 6.4 0.00 0.05 0.00 52 1012.2
20260503190059 22 349 1.6 6.4 0.00 0.05 0.00 54 1012.3
20260503185600 22 307 1.6 6.4 0.00 0.05 0.00 55 1012.3
20260503185100 22 0 1.6 8.0 0.00 0.05 0.00 56 1012.3
20260503184600 21 297 1.6 8.0 0.00 0.05 0.00 57 1012.4
20260503184101 21 0 0.0 4.8 0.00 0.05 0.00 58 1012.4
20260503183850 21 0 0.0 4.8 0.00 0.05 0.00 59 1012.5
20260503183059 21 346 1.6 6.4 0.00 0.05 0.00 61 1012.5
20260503182558 21 296 1.6 6.4 0.00 0.05 0.00 62 1012.5
20260503182057 20 306 3.2 6.4 0.00 0.05 0.00 62 1012.5
20260503181559 20 304 1.6 6.4 0.00 0.05 0.00 62 1012.6
20260503181058 20 308 0.0 4.8 0.00 0.05 0.00 63 1012.6
20260503180557 20 0 0.0 3.2 0.00 0.05 0.00 63 1012.7
20260503180108 20 0 0.0 3.2 0.00 0.05 0.00 63 1012.7
20260503175557 20 0 0.0 3.2 0.00 0.05 0.00 64 1012.7
20260503175057 19 0 0.0 4.8 0.00 0.05 0.00 64 1012.7
20260503174850 19 0 0.0 4.8 0.00 0.05 0.00 64 1012.8
20260503174058 18 0 0.0 3.2 0.00 0.05 0.00 64 1012.8
20260503173558 18 0 0.0 0.0 0.00 0.05 0.00 67 1012.9
20260503173058 18 0 0.0 0.0 0.00 0.05 0.00 68 1012.9
20260503172848 18 0 0.0 1.6 0.00 0.05 0.00 68 1013.0
20260503172056 18 0 0.0 1.6 0.00 0.05 0.00 66 1013.0
20260503171556 18 0 0.0 4.8 0.00 0.05 0.00 68 1013.0
20260503171057 17 0 0.0 4.8 0.00 0.05 0.00 68 1013.0
20260503170556 17 0 0.0 1.6 0.00 0.05 0.00 69 1013.2
20260503170359 17 0 0.0 0.0 0.00 0.05 0.00 68 1013.2
20260503160103 15 0 0.0 3.2 0.00 0.05 0.00 75 1013.4
20260503131043 10 0 0.0 0.0 0.00 0.05 0.00 96 1013.2
20260503130542 10 0 0.0 0.0 0.00 0.05 0.00 95 1013.2
20260503110539 10 0 0.0 0.0 0.00 0.05 0.00 94 1013.4
20260503081032 12 0 0.0 0.0 0.00 0.05 0.00 90 1013.6
20260503080605 12 0 0.0 0.0 0.00 0.05 0.00 90 1013.6
20260503072529 12 0 0.0 0.0 0.00 0.05 0.00 87 1013.6
20260503072322 13 0 0.0 0.0 0.00 0.05 0.00 87 1013.6
20260503071532 13 0 0.0 0.0 0.00 0.05 0.00 86 1013.6
20260503071029 13 0 0.0 0.0 0.00 0.05 0.00 86 1013.6
20260503070823 13 0 0.0 0.0 0.00 0.05 0.00 86 1013.6
20260503060321 14 0 0.0 0.0 0.00 0.05 0.05 82 1013.4
20260503055031 15 0 0.0 0.0 0.00 0.05 0.05 83 1013.4
20260503054822 15 0 0.0 0.0 0.00 0.05 0.05 81 1013.4
20260503054031 15 0 0.0 0.0 0.00 0.05 0.05 81 1013.4
20260503053820 15 0 0.0 0.0 0.00 0.05 0.05 79 1013.4
20260503053032 15 0 0.0 0.0 0.00 0.05 0.05 78 1013.5
20260503052531 15 0 0.0 0.0 0.00 0.05 0.05 77 1013.5
20260503052031 15 0 0.0 0.0 0.00 0.05 0.05 77 1013.5
20260503051534 15 0 0.0 0.0 0.00 0.05 0.05 76 1013.4
20260503051031 16 0 0.0 0.0 0.00 0.05 0.05 73 1013.4
20260503050531 16 0 0.0 0.0 0.00 0.05 0.05 74 1013.4
20260503050032 16 0 0.0 0.0 0.00 0.05 0.05 76 1013.4
20260503045530 16 0 0.0 0.0 0.00 0.05 0.05 75 1013.4
20260503045027 16 0 0.0 0.0 0.00 0.05 0.05 75 1013.4
20260503044531 16 0 0.0 0.0 0.00 0.05 0.05 76 1013.3
20260503044316 16 0 0.0 0.0 0.00 0.05 0.05 76 1013.2
20260503043527 16 0 0.0 0.0 0.00 0.05 0.05 74 1013.2
20260503043319 16 0 0.0 0.0 0.00 0.05 0.05 73 1013.2
20260503042528 16 0 0.0 0.0 0.00 0.05 0.05 72 1013.0
20260503042031 16 0 0.0 0.0 0.00 0.05 0.05 74 1013.0
20260503041544 17 0 0.0 0.0 0.00 0.05 0.05 74 1013.0
20260503041149 17 0 0.0 0.0 0.00 0.05 0.05 73 1012.9
20260503040650 17 0 0.0 0.0 0.00 0.05 0.05 72 1012.9
20260503040149 17 0 0.0 3.2 0.00 0.05 0.05 72 1012.9
20260503035648 17 0 0.0 3.2 0.00 0.05 0.05 69 1012.8
20260503035148 18 0 0.0 0.0 0.00 0.05 0.05 69 1012.7
20260503034938 18 0 0.0 0.0 0.00 0.05 0.05 67 1012.7
20260503034149 18 0 0.0 0.0 0.00 0.05 0.05 66 1012.6
20260503033648 18 0 0.0 0.0 0.00 0.05 0.05 65 1012.5
20260503033148 18 0 0.0 0.0 0.00 0.05 0.05 64 1012.4
20260503032648 19 0 0.0 0.0 0.00 0.05 0.05 63 1012.3
20260503032149 19 0 0.0 0.0 0.00 0.05 0.05 62 1012.3
20260503031648 19 0 0.0 0.0 0.00 0.05 0.05 62 1012.3
20260503031148 19 0 0.0 0.0 0.00 0.05 0.05 63 1012.2
20260503030649 20 0 0.0 0.0 0.00 0.05 0.05 64 1012.2
20260503030149 20 0 0.0 6.4 0.00 0.05 0.05 63 1012.1
20260503025645 20 0 0.0 6.4 0.00 0.05 0.05 61 1012.1
20260503025145 21 0 0.0 0.0 0.00 0.05 0.05 61 1012.0
20260503024644 21 0 0.0 0.0 0.00 0.08 0.05 60 1012.0
20260503024145 21 0 0.0 0.0 0.00 0.10 0.05 59 1012.0
20260503023645 21 0 0.0 0.0 0.00 0.10 0.05 56 1011.9
20260503023145 22 0 0.0 4.8 0.00 0.10 0.05 57 1011.9
20260503022645 22 0 1.6 6.4 0.00 0.10 0.05 56 1011.8
20260503022437 22 318 1.6 6.4 0.00 0.10 0.05 54 1011.9
20260503021644 22 0 0.0 6.4 0.00 0.10 0.05 53 1011.8
20260503021145 23 0 1.6 6.4 0.00 0.10 0.05 53 1011.8
20260503020644 23 322 1.6 6.4 0.00 0.10 0.05 53 1011.8
20260503020141 23 0 1.6 6.4 0.00 0.10 0.05 53 1011.8
20260503015641 23 0 0.0 4.8 0.00 0.10 0.05 53 1011.8
20260503015435 23 0 1.6 6.4 0.00 0.10 0.05 53 1011.8
20260503014642 23 318 1.6 6.4 0.00 0.13 0.05 53 1011.7
20260503014430 23 0 0.0 4.8 0.00 0.13 0.05 54 1011.7
20260503013642 23 0 1.6 6.4 0.00 0.13 0.05 54 1011.7
20260503013142 23 0 1.6 6.4 0.00 0.13 0.05 54 1011.8
20260503012641 23 0 1.6 6.4 0.00 0.13 0.05 53 1011.8
20260503012138 23 321 0.0 6.4 0.00 0.13 0.05 53 1011.8
20260503011636 23 334 1.6 6.4 0.00 0.13 0.05 53 1011.8
20260503011425 23 0 1.6 6.4 0.00 0.13 0.05 53 1011.8
20260503010633 24 313 1.6 6.4 0.00 0.13 0.05 53 1011.7
20260503010131 24 0 1.6 6.4 0.00 0.13 0.05 52 1011.8
20260503005632 24 319 3.2 8.0 0.00 0.13 0.05 52 1011.8
20260503005132 24 0 3.2 9.7 0.00 0.13 0.05 52 1011.8
20260503004921 24 0 1.6 9.7 0.00 0.13 0.05 52 1011.8
20260503004132 24 329 1.6 8.0 0.00 0.13 0.05 51 1011.9
20260503003637 24 333 0.0 6.4 0.00 0.13 0.05 51 1011.9
20260503003134 24 337 1.6 6.4 0.00 0.13 0.05 51 1011.9
20260503002633 24 321 3.2 6.4 0.00 0.13 0.05 51 1011.9
20260503002134 24 340 3.2 6.4 0.00 0.13 0.05 50 1011.9
20260503001918 24 346 3.2 6.4 0.00 0.13 0.05 49 1011.9
20260503001131 25 346 1.6 8.0 0.00 0.13 0.05 50 1012.0
20260503000917 25 104 1.6 9.7 0.00 0.13 0.05 51 1012.0
20260503000131 25 323 1.6 9.7 0.00 0.13 0.05 49 1012.0
20260502235631 24 0 1.6 9.7 0.00 0.13 0.05 50 1012.1
20260502235131 24 160 3.2 9.7 0.00 0.13 0.05 53 1012.1
20260502234631 24 339 3.2 9.7 0.00 0.13 0.05 51 1012.1
20260502234131 24 342 3.2 9.7 0.00 0.13 0.05 52 1012.2
20260502233631 24 0 1.6 9.7 0.00 0.13 0.05 52 1012.2
20260502233131 24 335 1.6 8.0 0.00 0.13 0.05 52 1012.3
20260502232631 24 0 3.2 9.7 0.00 0.13 0.05 52 1012.4
20260502232420 24 314 3.2 9.7 0.00 0.13 0.05 52 1012.5
20260502231632 24 331 3.2 8.0 0.00 0.13 0.05 53 1012.6
20260502231132 23 0 3.2 8.0 0.00 0.13 0.05 54 1012.6
20260502230629 23 0 1.6 6.4 0.00 0.13 0.05 54 1012.6
20260502230129 23 322 1.6 6.4 0.00 0.13 0.05 54 1012.7
20260502225703 23 296 3.2 9.7 0.00 0.13 0.05 55 1012.8
20260502224630 23 0 3.2 8.0 0.05 0.13 0.05 56 1013.0
20260502224130 23 339 3.2 6.4 0.05 0.13 0.05 55 1013.0
20260502223917 23 0 1.6 8.0 0.05 0.13 0.05 56 1013.2
20260502223129 23 339 3.2 8.0 0.05 0.13 0.05 56 1013.2
20260502222632 22 0 3.2 8.0 0.05 0.13 0.05 57 1013.3
20260502222435 22 327 3.2 9.7 0.05 0.13 0.05 57 1013.4
20260502221629 22 340 1.6 9.7 0.05 0.13 0.05 58 1013.4
20260502221126 22 0 1.6 6.4 0.05 0.13 0.05 59 1013.5
20260502220626 22 311 1.6 6.4 0.05 0.13 0.05 58 1013.5
20260502220126 22 209 1.6 9.7 0.05 0.13 0.05 57 1013.5
20260502215626 22 337 1.6 9.7 0.05 0.13 0.05 59 1013.6
20260502215126 22 0 3.2 9.7 0.00 0.08 0.00 58 1013.6
20260502214626 22 355 3.2 9.7 0.00 0.08 0.00 56 1013.6
20260502214126 22 0 3.2 9.7 0.00 0.08 0.00 58 1013.6
20260502213627 22 0 3.2 8.0 0.00 0.08 0.00 57 1013.7
20260502213126 22 0 3.2 8.0 0.00 0.08 0.00 58 1013.7
20260502212624 22 345 3.2 8.0 0.00 0.08 0.00 59 1013.8
20260502212125 22 305 3.2 8.0 0.00 0.08 0.00 58 1013.8
20260502211622 22 313 3.2 8.0 0.00 0.08 0.00 59 1013.9
20260502211410 22 332 1.6 6.4 0.00 0.08 0.00 59 1014.0
20260502210621 22 308 1.6 8.0 0.00 0.08 0.00 58 1014.0
20260502210120 22 328 3.2 9.7 0.00 0.08 0.00 58 1014.0
20260502205621 22 308 3.2 9.7 0.00 0.08 0.00 58 1014.0
20260502205120 22 0 1.6 8.0 0.00 0.08 0.00 57 1014.0
20260502204620 21 217 1.6 9.7 0.00 0.08 0.00 58 1014.0